This demonstration page uses our WeatherBlox Daily Observations layout. Learn more.

Left ArrowRight Arrow

53.62937, 11.41316

Hourly Observations for June 15, 2019

Temp ( °F °C ) Dew Point ( °F °C ) Humidity (%) Winds ( mph kmh ) Pressure ( in mb ) Visibility ( mi km ) Precip ( " mm )
6:50 am 06:50 Partly Cloudy with Light Rain 66 19 61 16 83 83 VRB 3 6 29.85 1011 30 48 N/A
7:20 am 07:20 Partly Cloudy with Light Rain 63 17 61 16 94 94 VRB 2 4 29.85 1011 4 7 N/A
7:50 am 07:50 Mostly Cloudy with Thunderstorms 63 17 63 17 100 100 VRB 2 4 29.85 1011 4 6 N/A
8:20 am 08:20 Mostly Cloudy with Strong Thunderstorms 63 17 63 17 100 100 NNE 5 7 29.85 1011 2 3 N/A
8:50 am 08:50 Mostly Cloudy with Thunderstorms 64 18 63 17 94 94 NW 5 7 29.82 1010 4 7 N/A
9:20 am 09:20 Cloudy with Strong Thunderstorms 64 18 63 17 94 94 W 10 17 29.82 1010 1 1 N/A
9:50 am 09:50 Mostly Cloudy with Strong Thunderstorms 63 17 63 17 100 100 ENE 9 15 29.77 1008 4 6 N/A
10:20 am 10:20 Partly Cloudy with Thunderstorms 63 17 61 16 94 94 VRB 6 9 29.82 1010 30 48 N/A
10:50 am 10:50 Mostly Sunny 63 17 61 16 94 94 NE 10 17 29.80 1009 30 48 N/A
11:20 am 11:20 Mostly Cloudy 64 18 61 16 88 88 ENE 7 11 29.80 1009 30 48 N/A
12:20 pm 12:20 Mostly Cloudy 64 18 61 16 88 88 ENE 9 15 29.80 1009 30 48 N/A
12:50 pm 12:50 Mostly Cloudy 64 18 61 16 88 88 ENE 10 17 29.80 1009 30 48 N/A
1:20 pm 13:20 Mostly Cloudy 64 18 61 16 88 88 ENE 9 15 29.80 1009 30 48 N/A
1:50 pm 13:50 Mostly Cloudy 66 19 61 16 83 83 ENE 8 13 29.80 1009 30 48 N/A
2:20 pm 14:20 Mostly Cloudy 66 19 61 16 83 83 VRB 6 9 29.80 1009 30 48 N/A
2:50 pm 14:50 Partly Cloudy 68 20 63 17 83 83 ENE 8 13 29.82 1010 30 48 N/A
3:20 pm 15:20 Partly Cloudy 68 20 63 17 83 83 ENE 6 9 29.82 1010 30 48 N/A
3:50 pm 15:50 Mostly Cloudy 70 21 64 18 83 83 VRB 2 4 29.82 1010 30 48 N/A
4:20 pm 16:20 Mostly Cloudy 70 21 64 18 83 83 VRB 3 6 29.82 1010 30 48 N/A
4:50 pm 16:50 Mostly Cloudy 70 21 64 18 83 83 VRB 2 4 29.82 1010 30 48 N/A
5:20 pm 17:20 Mostly Cloudy 70 21 64 18 83 83 W 10 17 29.82 1010 30 48 N/A
5:50 pm 17:50 Mostly Cloudy 70 21 64 18 83 83 W 10 17 29.85 1011 30 48 N/A
6:20 pm 18:20 Partly Cloudy 72 22 63 17 73 73 W 14 22 29.85 1011 30 48 N/A
6:50 pm 18:50 Partly Cloudy 72 22 61 16 69 69 W 9 15 29.88 1012 30 48 N/A
7:20 pm 19:20 Mostly Sunny 70 21 61 16 73 73 W 8 13 29.88 1012 30 48 N/A
7:50 pm 19:50 Mostly Sunny 70 21 61 16 73 73 W 3 6 29.88 1012 7 11 N/A
8:20 pm 20:20 Mostly Sunny 68 20 61 16 78 78 W 6 9 29.88 1012 7 11 N/A
8:50 pm 20:50 Mostly Sunny 68 20 61 16 78 78 W 13 20 29.85 1011 30 48 N/A

Powered by AerisWeather